Location: *
(6.0000°S, 32.3997°W)
Time: 19:14:15
(UTC+00:00)

Meteor 2-5 Rocket - Pass Details

Date: 01 April 2020
Orbit: 833 x 912 km, 81.2° (Epoch: 27 May)

Event Time Altitude Azimuth Distance (km) Brightness Sun altitude
Rises 20:52:18 0° 13° (NNE) 3,366 6.7 -10.2°
Reaches altitude 10° 20:54:55 10° 23° (NNE) 2,432 5.9 -10.9°
Maximum altitude 20:59:49 34° 86° (E) 1,354 4.3 -12.1°
Drops below altitude 10° 21:04:45 10° 149° (SSE) 2,451 5.8 -13.3°
Sets 21:07:22 0° 158° (SSE) 3,395 6.6 -13.9°
